Location: Calmejanne
(44.7523°N, 1.9418°E)
Time: 20:08:30
(UTC+00:00)

Okean 1 Rocket - Pass Details

Date: 14 May 2026
Orbit: 600 x 626 km, 82.5° (Epoch: 7 June)

Event Time Altitude Azimuth Distance (km) Brightness Sun altitude
Rises 19:40:33 0° 190° (S) 2,873 6.2 -5.1°
Reaches altitude 10° 19:42:45 10° 192° (SSW) 1,976 5.4 -5.4°
Maximum altitude 19:47:08 79° 279° (W) 638 3.3 -6.1°
Drops below altitude 10° 19:51:35 10° 6° (N) 2,005 6.1 -6.7°
Sets 19:53:51 0° 8° (N) 2,919 6.9 -7.0°
